Location: Holyhead Bay
(53.3667°N, 4.6667°W)
Time: 14:08:19
(UTC+00:00)

IRIDIUM 33 DEB - Pass Details

Date: 01 October 2021
Orbit: 581 x 600 km, 86.4° (Epoch: 26 October)

Event Time Altitude Azimuth Distance (km) Brightness Sun altitude
Rises 04:33:16 0° 352° (N) 2,851 ? -16.6°
Reaches altitude 10° 04:35:30 10° 350° (N) 1,940 ? -16.3°
Maximum altitude 04:39:43 62° 270° (W) 669 ? -15.7°
Drops below altitude 10° 04:43:51 10° 190° (S) 1,909 ? -15.1°
Sets 04:46:02 0° 187° (S) 2,801 ? -14.8°
